Location: ???????
(60.4260°N, 46.9069°E)
Time: 22:17:06
(UTC+00:00)

ARIANE 5 R/B - Pass Details

Date: 30 March 2020
Orbit: 749 x 795 km, 98.6° (Epoch: 24 May)

Event Time Altitude Azimuth Distance (km) Brightness Sun altitude
Rises 01:33:43 0° 18° (NNE) 3,267 6.4 -6.6°
Reaches altitude 10° 01:36:14 10° 8° (N) 2,344 5.4 -6.4°
Maximum altitude 01:40:45 32° 307° (NW) 1,338 3.5 -5.8°
Drops below altitude 10° 01:45:17 10° 247° (WSW) 2,356 4.4 -5.3°
Enters shadow 01:46:20 - 242° (WSW) 2,730 4.7 -5.2°
